Weather History for KANW - May, 2013

Change the Weather History Date:

Monday, May 20, 2013

  Actual Average (KVTN) Record (KVTN)
Temperature  
Mean Temperature 55 °F 59 °F  
Max Temperature 59 °F 72 °F 97 °F (1934)
Min Temperature 51 °F 46 °F 24 °F (2003)
Degree Days  
Heating Degree Days 10 7  
Month to date heating degree days 199  
Since 1 July heating degree days 6882  
Cooling Degree Days 0 1  
Month to date cooling degree days 17  
Year to date cooling degree days 21  
Growing Degree Days 5 (Base 50)    
Moisture  
Dew Point 49 °F    
Average Humidity 81    
Maximum Humidity 90    
Minimum Humidity 67    
Precipitation  
Precipitation 0.13 in 0.10 in 1.30 in (1917)
Month to date precipitation 1.93  
Year to date precipitation 5.96  
Snow  
Snow 0.00 in 0.00 in 0.00 in ()
Month to date snowfall 0.1  
Since 1 July snowfall 33.3  
Snow Depth -    
Sea Level Pressure  
Sea Level Pressure 29.61 in    
Wind  
Wind Speed 15 mph (WNW)    
Max Wind Speed 25 mph    
Max Gust Speed 36 mph    
Visibility 9 miles    
Events Rain    
T = Trace of Precipitation, MM = Missing Value Source: NWS Daily Summary

Daily Weather History Graph

Daily Weather History Graph

Search for Another Location

Airport or City:

Trip Planner

Search our weather history database for the weather conditions in past years. The results will help you decide how hot, cold, wet, or windy it might be!

Date:

Astronomy

May. 20, 2013 Rise Set
Actual Time 6:12 AM CDT 9:00 PM CDT
Civil Twilight 5:40 AM CDT 9:33 PM CDT
Nautical Twilight 4:58 AM CDT 10:15 PM CDT
Astronomical Twilight 4:10 AM CDT 11:03 PM CDT
Moon 4:04 PM CDT (5/20) 3:15 AM CDT (5/20)
Length of Visible Light 15h 53m
Length of Day
14h 47m
Waxing Gibbous, 75% of the Moon is Illuminated
May 20
Waxing Gibbous
May 24
Full
May 31
Last Quarter
Jun 8
New
Jun 16
First Quarter

Hourly Weather History & Observations

Time (CDT) Temp. Dew Point Humidity Pressure Visibility Wind Dir Wind Speed Gust Speed Precip Events Conditions
12:15 AM 55.9 °F 51.1 °F 84% 29.62 in 10.0 mi NW 12.7 mph - N/A   Drizzle
12:35 AM 55.6 °F 50.4 °F 83% 29.62 in 10.0 mi NW 13.8 mph - N/A Rain Light Rain
12:55 AM 55.4 °F 50.5 °F 84% 29.62 in 10.0 mi NW 13.8 mph - 0.01 in Rain Light Rain
1:15 AM 54.9 °F 50.2 °F 84% 29.62 in 10.0 mi WNW 11.5 mph 16.1 mph 0.01 in Rain Light Rain
1:35 AM 54.9 °F 49.6 °F 83% 29.62 in 10.0 mi WNW 10.4 mph - 0.01 in   Overcast
1:55 AM 55.0 °F 50.0 °F 83% 29.62 in 10.0 mi WNW 8.1 mph - 0.01 in   Overcast
2:15 AM 54.7 °F 50.2 °F 85% 29.62 in 10.0 mi West 8.1 mph - N/A   Mostly Cloudy
2:35 AM 54.7 °F 50.9 °F 87% 29.62 in 10.0 mi West 9.2 mph - N/A   Mostly Cloudy
2:55 AM 55.4 °F 50.0 °F 82% 29.62 in 10.0 mi West 9.2 mph - N/A   Scattered Clouds
3:15 AM 54.0 °F 49.3 °F 84% 29.61 in 10.0 mi West 11.5 mph - N/A   Clear
3:35 AM 54.3 °F 49.1 °F 83% 29.61 in 10.0 mi West 12.7 mph 18.4 mph N/A   Scattered Clouds
3:55 AM 54.5 °F 48.6 °F 80% 29.60 in 10.0 mi West 11.5 mph - N/A   Overcast
4:35 AM 53.6 °F 48.2 °F 82% 29.59 in 10.0 mi West 12.7 mph 17.3 mph N/A   Scattered Clouds
4:55 AM 53.6 °F 48.2 °F 82% 29.59 in 10.0 mi West 11.5 mph - N/A   Mostly Cloudy
5:15 AM 53.6 °F 47.8 °F 81% 29.58 in 10.0 mi West 15.0 mph - N/A   Scattered Clouds
5:35 AM 53.6 °F 47.8 °F 81% 29.59 in 10.0 mi West 16.1 mph 20.7 mph N/A   Mostly Cloudy
5:55 AM 52.7 °F 48.2 °F 85% 29.58 in 10.0 mi WNW 16.1 mph 20.7 mph N/A   Scattered Clouds
6:15 AM 52.7 °F 47.8 °F 84% 29.58 in 10.0 mi West 12.7 mph - N/A   Clear
6:35 AM 52.0 °F 48.2 °F 87% 29.58 in 10.0 mi West 12.7 mph - N/A   Clear
6:55 AM 53.6 °F 48.2 °F 82% 29.58 in 10.0 mi West 16.1 mph 21.9 mph N/A   Clear
7:15 AM 53.6 °F 47.3 °F 79% 29.58 in 10.0 mi West 17.3 mph - N/A   Scattered Clouds
7:35 AM 54.0 °F 46.8 °F 77% 29.59 in 10.0 mi West 16.1 mph - N/A   Mostly Cloudy
7:55 AM 54.5 °F 47.3 °F 77% 29.59 in 10.0 mi West 17.3 mph 21.9 mph N/A   Overcast
8:15 AM 54.7 °F 46.6 °F 74% 29.58 in 10.0 mi West 17.3 mph 23.0 mph N/A   Mostly Cloudy
8:35 AM 55.0 °F 46.6 °F 73% 29.58 in 10.0 mi West 17.3 mph 25.3 mph N/A   Overcast
8:55 AM 55.4 °F 46.4 °F 72% 29.59 in 10.0 mi West 19.6 mph 26.5 mph N/A   Overcast
9:15 AM 56.1 °F 46.2 °F 69% 29.59 in 10.0 mi West 21.9 mph 28.8 mph N/A   Overcast
9:35 AM 57.2 °F 46.9 °F 69% 29.58 in 10.0 mi West 19.6 mph 26.5 mph N/A   Overcast
9:55 AM 57.2 °F 47.1 °F 69% 29.59 in 10.0 mi West 19.6 mph 31.1 mph N/A   Overcast
10:15 AM 57.2 °F 46.4 °F 67% 29.59 in 10.0 mi West 18.4 mph 27.6 mph N/A   Overcast
10:35 AM 57.2 °F 46.6 °F 68% 29.58 in 10.0 mi West 17.3 mph 28.8 mph N/A   Overcast
10:55 AM 56.1 °F 46.6 °F 70% 29.59 in 7.0 mi West 20.7 mph 29.9 mph N/A Rain Rain
11:15 AM 57.2 °F 46.9 °F 69% 29.58 in 10.0 mi West 23.0 mph 27.6 mph N/A   Overcast
11:35 AM 57.4 °F 47.3 °F 69% 29.58 in 10.0 mi West 25.3 mph 31.1 mph N/A   Overcast
11:55 AM 55.0 °F 49.8 °F 83% 29.58 in 2.5 mi West 20.7 mph 25.3 mph 0.01 in Rain Light Rain
12:15 PM 55.8 °F 50.4 °F 82% 29.58 in 10.0 mi WSW 17.3 mph 24.2 mph N/A   Overcast
12:35 PM 56.5 °F 50.0 °F 79% 29.57 in 10.0 mi WSW 24.2 mph 28.8 mph N/A   Overcast
12:55 PM 55.9 °F 49.6 °F 79% 29.57 in 4.0 mi WSW 24.2 mph 32.2 mph N/A   Haze
2:15 PM 58.1 °F 52.9 °F 83% 29.57 in 4.0 mi West 16.1 mph 19.6 mph N/A   Haze
2:35 PM 58.5 °F 54.3 °F 86% 29.57 in 5.0 mi WNW 9.2 mph - N/A   Light Drizzle
2:55 PM 59.2 °F 53.6 °F 82% 29.57 in 10.0 mi WNW 15.0 mph 19.6 mph N/A   Overcast
3:15 PM 58.5 °F 52.2 °F 80% 29.58 in 10.0 mi NW 17.3 mph - N/A   Overcast
3:35 PM 57.2 °F 53.8 °F 88% 29.58 in 4.0 mi NNW 12.7 mph - 0.01 in Rain Rain
3:55 PM 57.4 °F 54.0 °F 88% 29.59 in 10.0 mi NW 11.5 mph - 0.01 in Rain Light Rain
4:15 PM 57.2 °F 53.1 °F 86% 29.59 in 7.0 mi NW 12.7 mph 17.3 mph N/A Rain Light Rain
4:35 PM 56.8 °F 53.8 °F 89% 29.60 in 4.0 mi NW 20.7 mph 26.5 mph 0.01 in Rain Rain
4:55 PM 56.3 °F 52.7 °F 88% 29.60 in 5.0 mi WNW 17.3 mph 26.5 mph 0.02 in Rain Rain
5:15 PM 56.1 °F 53.1 °F 89% 29.61 in 5.0 mi NW 18.4 mph 21.9 mph 0.01 in Rain Light Rain
5:35 PM 55.8 °F 52.9 °F 90% 29.62 in 7.0 mi NW 21.9 mph 27.6 mph 0.02 in Rain Light Rain
5:55 PM 55.4 °F 52.2 °F 89% 29.63 in 7.0 mi NW 20.7 mph 27.6 mph 0.03 in Rain Light Rain
6:15 PM 55.6 °F 52.5 °F 89% 29.63 in 7.0 mi NW 18.4 mph 26.5 mph 0.01 in Rain Light Rain
6:35 PM 55.4 °F 52.5 °F 90% 29.63 in 3.0 mi NW 19.6 mph 25.3 mph 0.02 in Rain Light Rain
6:55 PM 55.4 °F 51.6 °F 87% 29.64 in 7.0 mi NW 25.3 mph 35.7 mph 0.03 in Rain Light Rain
7:15 PM 54.9 °F 51.3 °F 88% 29.65 in 10.0 mi NW 24.2 mph 29.9 mph N/A   Drizzle
7:35 PM 54.9 °F 50.9 °F 86% 29.66 in 10.0 mi NW 24.2 mph 31.1 mph 0.01 in Rain Rain
7:55 PM 54.7 °F 50.4 °F 85% 29.66 in 10.0 mi NW 20.7 mph 28.8 mph 0.01 in   Light Drizzle
8:15 PM 54.7 °F 49.8 °F 84% 29.67 in 10.0 mi NW 20.7 mph 27.6 mph N/A Rain Light Rain
8:35 PM 54.5 °F 49.1 °F 82% 29.67 in 10.0 mi NW 12.7 mph 25.3 mph N/A   Overcast
8:55 PM 55.4 °F 48.2 °F 77% 29.67 in 10.0 mi WNW 18.4 mph 25.3 mph N/A   Overcast
9:15 PM 54.1 °F 47.7 °F 79% 29.68 in 10.0 mi WNW 15.0 mph 25.3 mph N/A   Overcast
9:35 PM 53.6 °F 47.1 °F 79% 29.67 in 10.0 mi WNW 19.6 mph 26.5 mph N/A   Mostly Cloudy
9:55 PM 53.6 °F 46.9 °F 78% 29.68 in 10.0 mi WNW 18.4 mph 23.0 mph N/A   Mostly Cloudy
10:15 PM 53.6 °F 46.8 °F 78% 29.67 in 10.0 mi WNW 19.6 mph 26.5 mph N/A   Mostly Cloudy
10:35 PM 52.9 °F 45.9 °F 77% 29.68 in 10.0 mi WNW 19.6 mph 25.3 mph N/A   Mostly Cloudy
10:55 PM 52.2 °F 45.5 °F 78% 29.68 in 10.0 mi WNW 16.1 mph 26.5 mph N/A   Mostly Cloudy
11:15 PM 51.6 °F 45.3 °F 79% 29.68 in 10.0 mi WNW 17.3 mph 24.2 mph N/A   Scattered Clouds
11:35 PM 51.8 °F 45.5 °F 79% 29.69 in 10.0 mi WNW 17.3 mph 24.2 mph N/A   Mostly Cloudy
11:55 PM 51.1 °F 44.8 °F 79% 29.69 in 10.0 mi WNW 17.3 mph 26.5 mph N/A   Mostly Cloudy